User: anonymous
Location: Oshawa
(43.9000°N, 78.8670°W)
Time: 13:35:31
(UTC-04:00)
Language:

Explorer 11/Cluster Stage 4 - Orbit

View from above orbital plane
View from above orbital plane
View from above satellite
View from above satellite

Ground track
Ground track

The orbit data is extracted from the following two-line orbital elements,

1 00107U 61013A   14108.80203904  .00004955  00000-0  67661-3 0   329
2 00107 028.7874 275.7007 0564522 058.7100 066.7920 14.04559373648211
Epoch (UTC): 18 April 2014 19:14:56
Eccentricity: 0.0564522
inclination: 28.7874°
perigee height: 468 km
apogee height: 1287 km
right ascension of ascending node: 275.7007°
argument of perigee: 58.7100°
revolutions per day: 14.04559373
mean anomaly at epoch: 66.7920°
orbit number at epoch: 64821

The dashed part of the orbit path shows where the satellite is in the earth's shadow,  

DLR